| time (UTC) | temp F | wind direction | speed knots | gust knots | rain 1hr in | rain 24hr in | rain mn in | humidity % | barometer mb |
| 20260506160034 | 44 | 244 | 8.7 | 14.8 | 0.00 | 0.00 | 0.00 | 47 | 1015.0 |
| 20260506154537 | 43 | 232 | 10.4 | 15.6 | 0.00 | 0.00 | 0.00 | 49 | 1015.3 |
| 20260506153028 | 42 | 215 | 10.4 | 15.6 | 0.00 | 0.00 | 0.00 | 51 | 1015.4 |
| 20260506151530 | 41 | 219 | 10.4 | 14.8 | 0.00 | 0.00 | 0.00 | 53 | 1015.7 |
| 20260506150032 | 41 | 215 | 8.7 | 13.9 | 0.00 | 0.00 | 0.00 | 54 | 1015.7 |
| 20260506144531 | 40 | 220 | 8.7 | 13.9 | 0.00 | 0.00 | 0.00 | 55 | 1015.9 |
| 20260506143029 | 39 | 254 | 9.6 | 13.9 | 0.00 | 0.00 | 0.00 | 55 | 1016.1 |
| 20260506141526 | 38 | 212 | 8.7 | 12.2 | 0.00 | 0.00 | 0.00 | 54 | 1016.3 |
| 20260506140034 | 38 | 213 | 6.1 | 9.6 | 0.00 | 0.00 | 0.00 | 53 | 1016.3 |
| 20260506134532 | 36 | 184 | 4.3 | 7.0 | 0.00 | 0.00 | 0.00 | 53 | 1016.3 |
| 20260506133031 | 34 | 213 | 3.5 | 6.1 | 0.00 | 0.00 | 0.00 | 56 | 1016.3 |
| 20260506131533 | 33 | 234 | 3.5 | 6.1 | 0.00 | 0.00 | 0.00 | 56 | 1016.3 |
| 20260506130032 | 31 | 262 | 0.9 | 3.5 | 0.00 | 0.00 | 0.00 | 56 | 1016.4 |
| 20260506124528 | 30 | 252 | 1.7 | 3.5 | 0.00 | 0.00 | 0.00 | 56 | 1016.6 |
| 20260506123030 | 30 | 267 | 1.7 | 2.6 | 0.00 | 0.00 | 0.00 | 56 | 1016.6 |
| 20260506121530 | 29 | 268 | 1.7 | 3.5 | 0.00 | 0.00 | 0.00 | 57 | 1016.7 |
| 20260506120034 | 29 | 268 | 1.7 | 3.5 | 0.00 | 0.00 | 0.00 | 56 | 1016.8 |
| 20260506114529 | 30 | 267 | 2.6 | 5.2 | 0.00 | 0.00 | 0.00 | 55 | 1017.0 |
| 20260506113030 | 30 | 268 | 2.6 | 5.2 | 0.00 | 0.00 | 0.00 | 56 | 1017.1 |
| 20260506111530 | 30 | 268 | 4.3 | 6.1 | 0.00 | 0.00 | 0.00 | 55 | 1017.3 |
| 20260506110033 | 30 | 265 | 3.5 | 5.2 | 0.00 | 0.00 | 0.00 | 55 | 1017.5 |
| 20260506104530 | 29 | 265 | 2.6 | 5.2 | 0.00 | 0.00 | 0.00 | 56 | 1017.4 |
| 20260506103033 | 29 | 263 | 2.6 | 3.5 | 0.00 | 0.00 | 0.00 | 56 | 1017.6 |
| 20260506101530 | 29 | 261 | 1.7 | 6.1 | 0.00 | 0.00 | 0.00 | 55 | 1017.7 |
| 20260506100028 | 29 | 263 | 3.5 | 6.1 | 0.00 | 0.00 | 0.00 | 55 | 1017.8 |
| 20260506094530 | 29 | 257 | 1.7 | 4.3 | 0.00 | 0.00 | 0.00 | 54 | 1018.0 |
| 20260506093052 | 29 | 237 | 3.5 | 6.1 | 0.00 | 0.00 | 0.00 | 53 | 1018.0 |
| 20260506091533 | 28 | 259 | 2.6 | 6.1 | 0.00 | 0.00 | 0.00 | 54 | 1018.2 |
| 20260506090029 | 30 | 227 | 2.6 | 4.3 | 0.00 | 0.00 | 0.00 | 52 | 1018.2 |
| 20260506084529 | 31 | 229 | 1.7 | 4.3 | 0.00 | 0.00 | 0.00 | 52 | 1018.4 |
| 20260506083034 | 30 | 336 | 0.9 | 1.7 | 0.00 | 0.00 | 0.00 | 54 | 1018.5 |
| 20260506081532 | 28 | 336 | 0.9 | 2.6 | 0.00 | 0.00 | 0.00 | 55 | 1018.5 |
| 20260506073030 | 29 | 0 | 0.0 | 2.6 | 0.00 | 0.00 | 0.00 | 55 | 1018.8 |
| 20260506071534 | 28 | 0 | 0.0 | 3.5 | 0.00 | 0.00 | 0.00 | 54 | 1018.8 |
| 20260506061540 | 30 | 326 | 1.7 | 6.1 | 0.00 | 0.00 | 0.00 | 54 | 1019.2 |
| 20260506044529 | 34 | 336 | 1.7 | 3.5 | 0.00 | 0.00 | 0.00 | 47 | 1019.3 |
| 20260506043033 | 35 | 351 | 1.7 | 3.5 | 0.00 | 0.00 | 0.00 | 45 | 1019.4 |
| 20260506041530 | 36 | 355 | 2.6 | 3.5 | 0.00 | 0.00 | 0.00 | 45 | 1019.5 |
| 20260506040028 | 35 | 344 | 1.7 | 4.3 | 0.00 | 0.00 | 0.00 | 44 | 1019.6 |
| 20260506034528 | 38 | 34 | 4.3 | 5.2 | 0.00 | 0.00 | 0.00 | 42 | 1019.4 |
| 20260506033034 | 38 | 35 | 4.3 | 5.2 | 0.00 | 0.00 | 0.00 | 42 | 1019.3 |
| 20260506031533 | 38 | 36 | 5.2 | 7.8 | 0.00 | 0.00 | 0.00 | 41 | 1019.3 |
| 20260506030033 | 39 | 32 | 6.1 | 7.8 | 0.00 | 0.00 | 0.00 | 41 | 1019.2 |
| 20260506024528 | 39 | 26 | 5.2 | 9.6 | 0.00 | 0.00 | 0.00 | 40 | 1019.2 |
| 20260506023028 | 41 | 19 | 7.8 | 10.4 | 0.00 | 0.00 | 0.00 | 38 | 1019.1 |
| 20260506021532 | 43 | 22 | 10.4 | 13.9 | 0.00 | 0.00 | 0.00 | 36 | 1019.0 |
| 20260506020105 | 43 | 5 | 10.4 | 18.2 | 0.00 | 0.00 | 0.00 | 36 | 1019.0 |
| 20260506014531 | 44 | 13 | 11.3 | 19.1 | 0.00 | 0.00 | 0.00 | 36 | 1019.0 |
| 20260506013031 | 44 | 346 | 9.6 | 20.9 | 0.00 | 0.00 | 0.00 | 34 | 1018.8 |
| 20260506011530 | 45 | 9 | 12.2 | 19.1 | 0.00 | 0.00 | 0.00 | 34 | 1018.7 |
| 20260506010031 | 45 | 15 | 11.3 | 20.9 | 0.00 | 0.00 | 0.00 | 35 | 1018.7 |
| 20260506004526 | 46 | 19 | 14.8 | 22.6 | 0.00 | 0.00 | 0.00 | 35 | 1018.7 |
| 20260506003030 | 46 | 344 | 12.2 | 18.2 | 0.00 | 0.00 | 0.00 | 34 | 1018.7 |
| 20260506001533 | 46 | 33 | 13.9 | 22.6 | 0.00 | 0.00 | 0.00 | 34 | 1018.7 |
| 20260506000050 | 46 | 346 | 11.3 | 21.7 | 0.00 | 0.00 | 0.00 | 35 | 1018.6 |
| 20260505234534 | 47 | 18 | 13.0 | 23.5 | 0.00 | 0.00 | 0.00 | 35 | 1018.7 |
| 20260505233030 | 47 | 5 | 14.8 | 24.3 | 0.00 | 0.00 | 0.00 | 34 | 1018.7 |
| 20260505231530 | 46 | 334 | 16.5 | 21.7 | 0.00 | 0.00 | 0.00 | 34 | 1018.6 |
| 20260505230041 | 46 | 335 | 15.6 | 23.5 | 0.00 | 0.00 | 0.00 | 33 | 1018.6 |
| 20260505224528 | 47 | 15 | 20.0 | 26.1 | 0.00 | 0.00 | 0.00 | 34 | 1018.7 |
| 20260505223037 | 47 | 355 | 15.6 | 24.3 | 0.00 | 0.00 | 0.00 | 33 | 1018.6 |
| 20260505221530 | 47 | 13 | 17.4 | 26.1 | 0.00 | 0.00 | 0.00 | 35 | 1018.5 |
| 20260505220028 | 45 | 352 | 19.1 | 26.1 | 0.00 | 0.00 | 0.00 | 36 | 1018.7 |
| 20260505214532 | 46 | 5 | 16.5 | 29.5 | 0.00 | 0.00 | 0.00 | 34 | 1018.7 |
| 20260505213030 | 46 | 5 | 16.5 | 23.5 | 0.00 | 0.00 | 0.00 | 36 | 1018.8 |
| 20260505211541 | 46 | 322 | 17.4 | 23.5 | 0.00 | 0.00 | 0.00 | 37 | 1019.0 |
| 20260505210033 | 46 | 5 | 12.2 | 27.8 | 0.00 | 0.00 | 0.00 | 38 | 1019.0 |
| 20260505204534 | 45 | 344 | 18.2 | 26.9 | 0.00 | 0.00 | 0.00 | 37 | 1019.0 |
| 20260505203032 | 46 | 355 | 15.6 | 28.7 | 0.00 | 0.00 | 0.00 | 38 | 1019.0 |
| 20260505201533 | 46 | 349 | 16.5 | 24.3 | 0.00 | 0.00 | 0.00 | 38 | 1019.1 |
| 20260505200030 | 45 | 340 | 17.4 | 27.8 | 0.00 | 0.00 | 0.00 | 40 | 1019.0 |
| 20260505194532 | 44 | 335 | 15.6 | 26.1 | 0.00 | 0.00 | 0.00 | 40 | 1019.1 |
| 20260505193032 | 45 | 344 | 17.4 | 24.3 | 0.00 | 0.00 | 0.00 | 38 | 1019.1 |
| 20260505191535 | 45 | 5 | 17.4 | 26.9 | 0.00 | 0.00 | 0.00 | 39 | 1019.2 |
| 20260505190029 | 44 | 350 | 20.0 | 29.5 | 0.00 | 0.00 | 0.00 | 40 | 1019.1 |
| 20260505184539 | 44 | 14 | 15.6 | 27.8 | 0.00 | 0.00 | 0.00 | 42 | 1019.0 |
| 20260505183031 | 43 | 317 | 17.4 | 25.2 | 0.00 | 0.00 | 0.00 | 44 | 1019.3 |
| 20260505181537 | 44 | 309 | 13.9 | 24.3 | 0.00 | 0.00 | 0.00 | 44 | 1019.1 |
| 20260505180033 | 43 | 341 | 17.4 | 25.2 | 0.00 | 0.00 | 0.00 | 44 | 1019.1 |
| 20260505174537 | 43 | 344 | 15.6 | 23.5 | 0.00 | 0.00 | 0.00 | 43 | 1019.1 |
| 20260505173031 | 42 | 326 | 13.0 | 20.9 | 0.00 | 0.00 | 0.00 | 47 | 1019.2 |
| 20260505171538 | 41 | 348 | 13.0 | 21.7 | 0.00 | 0.00 | 0.00 | 46 | 1019.4 |
| 20260505170032 | 41 | 319 | 13.9 | 19.1 | 0.00 | 0.00 | 0.00 | 50 | 1019.5 |
| 20260505164533 | 40 | 31 | 15.6 | 21.7 | 0.00 | 0.00 | 0.00 | 51 | 1019.6 |
| 20260505163032 | 40 | 26 | 12.2 | 18.2 | 0.00 | 0.00 | 0.00 | 52 | 1019.6 |
| 20260505161532 | 39 | 332 | 8.7 | 13.9 | 0.00 | 0.00 | 0.00 | 55 | 1019.7 |